Wind_Speed
27 26 25 24 24 24 23 21 20 16 15 14 14 16 17 18 19 17 14 15 15 15 16 14 15 16 20 16 20 19 9 9 6 4 5 10 14 13 11 13 12 11 8
30 31 29 26 23 22 24 21 20 17 14 14 14 14 15 14 15 15 15 13 15 16 17 15 14 12 16 16 16 16 10 11 8 11 11 9 16 11 12 13 10 8 9
24 26 26 26 26 26 24 21 19 16 14 13 13 13 13 13 12 12 15 17 16 17 18 16 15 11 13 16 16 15 13 13 9 10 11 12 15 13 13 10 9 9 7
22 22 22 22 22 19 19 19 18 17 12 12 10 10 10 10 12 13 15 15 15 16 15 14 13 10 11 12 12 13 17 15 9 11 12 15 15 14 11 12 9 8 8
23 21 23 19 15 14 15 15 14 13 13 9 6 7 8 9 10 16 15 14 12 13 13 13 10 7 7 9 13 16 17 18 11 12 13 16 15 17 13 11 11 10 7
22 23 18 15 13 13 13 13 14 14 9 5 2 4 5 7 12 12 9 8 10 12 14 13 11 7 1 4 6 16 16 18 13 11 12 15 16 16 13 14 12 8 4
17 16 16 15 14 14 15 15 13 10 7 5 2 2 5 8 7 8 8 7 9 13 15 13 10 8 3 7 10 12 10 12 9 11 13 15 18 17 16 15 14 9 5
17 16 15 14 14 16 17 15 11 10 8 6 5 4 7 8 6 7 6 6 8 10 13 13 10 8 7 9 13 12 11 9 7 5 8 12 11 17 16 14 12 9 5
17 17 16 16 18 17 16 14 13 13 11 9 8 7 7 9 7 5 6 7 9 10 10 12 10 9 9 7 10 13 11 8 9 7 6 9 11 17 16 11 10 11 3
18 18 18 18 18 18 17 16 14 12 11 10 10 9 8 9 9 6 7 6 9 10 10 9 8 7 10 9 11 11 10 9 11 10 9 11 12 10 13 11 9 11 5
18 18 18 18 18 17 16 14 14 13 12 11 11 9 8 7 10 9 8 7 8 8 9 8 6 4 8 11 12 12 6 8 12 11 11 10 10 10 11 10 10 7 8
18 17 16 17 16 16 16 13 13 14 13 11 10 7 5 5 7 9 10 10 8 5 6 6 4 8 10 9 10 10 12 12 9 12 12 11 11 10 10 8 6 6 5
16 15 16 14 14 15 16 11 9 9 10 9 6 4 2 3 5 6 7 9 10 3 4 3 5 10 9 8 7 9 13 10 12 14 13 12 10 10 10 8 6 4 4
22 14 15 14 14 13 15 12 8 7 7 7 6 3 2 4 6 9 9 8 9 5 3 2 6 10 8 7 6 6 5 6 9 11 16 15 12 10 10 9 8 7 6
31 20 19 17 15 14 16 13 8 9 4 6 6 4 3 4 6 8 8 7 8 6 5 5 4 9 10 7 7 8 8 8 8 6 7 13 16 13 11 9 8 8 7
27 26 24 19 20 15 14 18 16 15 11 9 8 5 4 4 3 3 4 5 5 6 8 9 8 3 4 10 11 9 10 9 10 6 5 6 8 11 10 10 10 10 8
29 28 30 26 16 19 11 10 10 10 11 6 6 6 6 2 1 2 4 3 3 7 10 9 10 10 8 3 7 15 16 11 12 10 11 10 8 8 8 10 14 11 9
28 32 33 31 25 20 11 9 9 7 5 0 3 6 5 3 3 1 4 3 5 10 8 8 7 8 8 7 6 5 10 15 12 16 12 13 12 11 10 11 16 13 10
39 36 35 30 29 30 23 13 8 4 6 1 5 3 4 5 7 6 10 8 5 7 7 6 7 8 8 9 9 7 6 6 11 16 19 15 14 13 13 15 13 15 11
19 23 28 29 29 25 23 18 13 7 5 1 5 3 3 3 3 5 7 7 6 6 6 7 7 8 9 11 10 10 10 8 6 8 12 17 18 15 16 14 17 15 19
21 22 24 26 22 18 15 12 15 10 7 5 4 3 3 4 4 5 6 8 6 5 5 5 7 7 9 10 11 11 11 11 9 7 3 13 15 21 21 15 17 16 14
17 18 17 18 17 15 15 11 10 10 7 5 3 1 5 5 6 6 7 7 5 5 5 6 6 7 7 7 11 11 10 10 11 10 9 9 6 15 21 21 18 21 17
18 18 19 15 14 17 15 13 9 10 7 5 4 4 6 7 7 7 7 6 5 6 6 7 8 8 8 7 6 9 11 10 13 16 15 14 13 13 9 21 22 21 23
17 15 15 15 15 15 15 14 10 9 9 8 6 6 7 6 6 7 7 6 6 7 7 8 8 9 10 10 8 7 8 12 18 18 17 18 19 17 16 13 21 24 24
18 18 15 16 16 17 17 14 11 11 9 7 6 5 6 6 7 8 6 6 7 8 10 8 9 11 12 13 12 10 12 17 17 18 21 19 21 21 21 20 16 23 26
21 18 16 15 17 15 15 14 12 10 10 8 6 4 6 6 8 9 7 7 8 9 10 10 11 13 15 14 13 18 22 23 23 24 24 24 22 22 23 24 22 21 25
Wind_Direction
222 226 228 234 238 243 246 250 254 259 267 274 280 279 276 280 285 288 292 298 300 301 305 297 284 277 261 250 247 254 215 157 131 140 130 147 151 147 148 163 161 150 137
220 225 230 235 236 239 243 244 246 249 257 268 277 276 278 283 289 295 303 297 298 304 304 304 297 281 265 243 247 244 205 160 162 140 139 139 154 144 148 151 157 160 144
214 221 227 236 238 240 244 244 238 236 245 258 262 272 284 291 300 305 301 304 307 304 305 304 299 278 260 243 240 222 185 162 160 150 140 147 143 142 145 145 154 148 135
212 214 221 228 230 233 237 235 226 223 231 248 260 274 286 299 305 308 309 310 312 312 313 312 305 288 252 229 216 209 168 162 160 144 142 150 151 152 163 153 152 165 147
208 209 219 224 228 230 228 221 206 206 223 233 256 284 305 316 311 311 307 315 326 327 334 336 334 305 231 210 198 180 160 159 166 146 150 157 159 160 174 170 171 174 172
210 214 216 220 220 213 209 195 190 197 202 219 258 326 330 324 330 336 341 348 349 350 346 348 351 4 355 164 190 178 169 158 167 152 161 169 163 161 174 171 162 162 177
209 209 206 203 195 192 187 182 177 175 162 146 112 31 1 1 2 3 2 13 20 20 19 12 10 25 82 145 147 154 165 176 161 156 162 177 166 165 169 170 172 165 158
193 191 185 183 180 178 174 170 163 153 152 140 114 87 57 35 25 15 19 43 36 31 30 23 30 45 96 123 136 138 153 170 177 133 150 175 173 164 168 177 175 168 161
178 177 176 175 169 169 169 165 161 155 147 137 125 109 74 51 38 35 44 40 34 31 30 38 48 74 92 107 131 138 145 163 173 160 138 150 169 167 168 163 173 169 177
173 169 166 165 164 166 167 163 157 152 143 137 120 108 91 67 42 36 45 32 33 30 29 40 43 96 112 113 121 130 135 168 167 159 148 150 162 165 177 177 185 188 171
161 159 158 160 159 158 156 156 152 152 148 140 127 112 92 74 52 40 39 34 21 25 27 26 30 104 124 126 130 126 121 148 154 155 148 151 155 164 176 179 184 208 191
155 153 149 149 151 150 149 151 155 153 149 137 128 115 87 57 44 37 33 35 31 18 12 35 58 138 138 136 131 140 151 143 144 150 160 163 163 167 171 181 194 205 234
134 135 138 137 136 135 131 135 139 147 154 155 140 126 91 29 11 14 33 30 22 37 8 24 127 143 144 135 132 147 155 161 165 159 162 168 175 171 166 172 183 213 217
125 126 126 124 118 118 118 123 137 137 142 148 139 117 66 41 22 20 26 34 26 47 42 58 160 163 165 162 165 176 199 204 198 191 168 164 167 175 181 191 199 198 204
124 147 126 122 112 102 99 98 100 111 117 130 113 94 69 57 28 31 33 36 28 30 66 71 111 184 195 199 196 201 205 211 213 251 185 171 163 174 189 200 214 206 210
136 142 135 130 122 112 104 100 101 102 97 93 98 106 68 69 81 70 68 55 42 80 82 68 64 59 244 232 229 222 217 215 206 209 206 206 196 180 196 202 208 215 212
141 139 128 129 135 114 120 129 122 123 113 88 51 51 67 19 15 171 144 76 87 81 76 64 55 43 36 15 259 245 237 233 225 210 223 225 224 238 205 210 200 213 220
142 147 145 145 141 139 145 161 162 184 140 200 0 25 43 37 23 41 128 56 48 57 60 45 34 34 31 32 27 324 276 243 238 233 229 231 222 231 240 209 204 212 221
157 160 154 160 165 157 157 159 157 153 125 128 294 312 12 53 44 45 70 79 68 57 42 31 20 24 8 2 1 350 335 300 253 244 238 230 228 223 234 230 211 210 214
153 151 145 151 154 154 157 159 154 132 105 174 273 313 341 74 83 57 61 62 56 44 26 19 17 17 359 352 349 347 345 338 0 270 259 244 237 232 229 218 221 210 211
148 148 152 158 155 151 154 155 121 141 152 194 215 12 55 81 73 60 60 58 41 30 21 12 358 351 356 347 341 338 335 332 340 315 347 251 250 238 235 225 218 217 219
151 148 151 148 147 140 127 132 132 135 157 170 179 103 96 85 72 63 50 51 26 11 7 347 352 338 346 342 333 325 322 321 323 322 313 292 277 251 242 226 222 223 208
146 142 139 131 129 129 125 123 143 134 132 157 176 140 96 92 77 55 46 28 16 29 11 359 349 346 344 341 349 323 318 321 313 315 311 304 295 276 272 228 213 209 211
140 141 141 135 134 130 124 121 123 132 147 142 135 114 93 79 77 63 43 28 23 18 4 358 347 341 341 333 345 339 324 319 320 317 310 300 291 286 275 273 226 211 207
136 133 135 139 133 123 122 124 135 132 129 122 114 102 99 92 80 66 45 19 13 15 353 353 341 338 329 325 326 325 310 318 320 314 310 297 286 278 271 265 263 220 207
127 121 130 131 118 124 126 130 131 129 124 122 132 134 101 87 74 60 35 14 359 354 342 349 340 333 325 323 326 323 319 316 317 317 310 298 279 270 264 259 254 248 212
Height
780 784 788 791 794 797 799 801 802 804 804 804 803 803 801 800 798 797 796 793 791 788 785 782 779 778 777 779 781 782 782 784 791 797 801 803 806 809 812 814 815 819 822
773 777 781 785 788 791 792 795 797 799 800 800 800 799 798 796 795 794 793 790 788 785 782 779 777 775 774 774 777 781 782 783 788 792 798 802 805 810 812 814 818 820 822
768 772 776 778 782 784 786 789 792 794 795 796 796 796 795 794 792 791 790 787 785 782 779 777 774 771 770 772 775 774 779 784 786 790 796 801 805 810 812 815 818 820 823
761 766 769 772 775 778 781 783 785 789 791 792 793 793 792 791 790 788 786 784 782 779 776 774 771 768 767 769 772 774 777 783 786 789 794 799 805 809 812 814 818 820 822
755 759 762 767 771 774 776 779 782 785 787 789 790 791 790 789 787 783 781 779 777 776 774 772 769 766 766 768 769 772 776 781 785 787 793 796 802 806 811 813 816 820 822
750 753 759 764 767 769 772 775 779 782 784 786 788 788 786 785 783 781 779 777 777 775 772 770 767 766 766 767 768 772 775 779 783 786 791 793 798 803 809 811 816 819 821
746 750 755 759 762 764 768 772 776 779 781 785 785 785 785 783 782 780 778 777 775 774 771 770 769 767 767 767 770 774 777 781 783 785 790 793 796 800 805 810 813 816 819
742 747 751 754 759 763 767 771 775 777 781 782 782 783 783 782 781 779 777 776 775 774 772 771 770 769 769 771 772 776 779 782 785 788 791 793 796 799 803 809 812 815 818
738 743 748 752 757 762 767 770 773 776 779 780 781 782 781 781 780 779 777 777 776 775 773 771 770 770 772 773 775 778 780 783 785 788 790 793 796 799 802 808 812 815 818
735 740 745 750 755 760 765 770 773 775 778 781 782 782 782 781 780 779 778 778 777 776 775 773 772 772 773 774 776 779 781 783 785 789 791 794 797 800 802 806 809 812 814
735 740 744 749 754 759 765 768 771 775 779 781 782 783 783 783 781 779 778 777 777 776 775 775 774 775 775 775 776 777 781 783 784 790 793 796 798 800 803 805 807 810 811
737 743 748 751 755 759 765 771 774 775 778 781 783 784 785 785 783 781 779 777 775 776 775 774 774 775 777 778 777 778 781 783 788 788 792 795 798 800 802 804 806 808 810
743 748 752 757 760 762 765 775 779 781 781 783 784 785 786 785 784 782 780 778 776 775 775 775 774 776 779 780 781 781 781 783 785 786 788 792 795 799 801 803 805 806 807
740 755 758 765 766 768 767 774 780 782 784 784 785 786 786 785 784 781 780 779 778 775 774 774 775 776 778 780 783 783 785 786 785 784 782 786 792 797 800 802 803 805 806
726 756 758 767 768 771 773 777 783 783 787 787 787 787 786 785 784 782 781 780 779 778 776 775 776 776 778 780 781 783 784 785 786 789 788 786 785 791 796 799 801 802 802
741 750 755 766 764 772 779 783 787 788 789 792 789 788 787 786 784 782 779 779 779 777 778 778 777 778 778 779 781 781 781 784 785 788 789 791 790 789 793 795 797 799 798
736 743 739 750 770 766 781 789 793 794 789 794 796 791 786 787 785 782 778 778 779 777 777 779 780 779 779 779 778 779 778 782 783 785 788 789 789 791 790 792 792 794 795
732 739 744 747 751 763 778 789 792 795 787 794 796 794 788 786 786 783 777 780 780 779 780 781 781 779 778 775 775 777 776 778 779 781 784 786 786 788 790 788 789 792 792
725 729 727 740 753 753 767 782 787 790 786 792 799 796 790 787 785 785 778 780 782 782 781 784 783 779 780 780 777 775 775 775 776 777 779 781 783 784 786 786 786 788 790
732 734 736 746 753 761 765 769 776 784 787 794 801 796 791 787 787 787 783 783 783 782 783 783 781 780 783 782 779 775 773 774 773 773 774 775 777 779 780 780 783 784 787
736 740 743 751 757 761 768 772 767 783 789 797 798 794 789 789 788 787 785 783 785 784 781 780 781 782 781 782 781 778 775 774 773 771 769 771 771 773 775 776 776 780 782
740 743 748 753 756 760 761 773 779 780 787 791 794 793 790 790 788 786 786 784 786 785 783 783 778 781 778 777 781 781 778 775 773 771 768 768 767 767 767 768 772 774 776
743 746 750 755 759 762 767 770 780 779 785 790 793 791 787 785 785 786 785 786 787 783 783 783 783 780 778 776 774 778 778 775 772 771 768 765 764 763 762 763 764 767 768
746 750 754 757 761 764 766 771 778 783 788 789 791 789 785 786 786 785 787 787 787 784 784 782 782 781 778 779 772 772 775 774 770 767 765 762 759 757 757 756 757 759 761
748 753 760 763 763 763 766 773 782 785 787 788 790 789 786 787 786 783 786 788 786 782 786 781 782 778 780 776 770 768 770 771 769 766 762 759 756 754 752 752 751 751 753
751 754 761 764 761 767 769 776 780 784 785 787 790 792 787 786 783 781 785 787 787 784 785 779 779 777 776 773 767 764 762 763 762 760 757 752 750 747 745 745 744 744 744